When you browse on this site, cookies collect data to enhance your experience and personalize the content and advertising you see.
Visit our Privacy Policy to learn more. By continuing to use the site, you agree to this use of cookies and data.
  • en France
  • Liste des pays
  • À 7 jours
  • Température de l'eau
  • Carte satellitaire
  • Carte météo
  • Widgets météo
  • user-avatar
    Se connecter

    Météo par heure à Cumiluh

    Ce jour, 12 Décembre, Mercredi

    Heure Température Précipitation Vent Pression Humidité
    00:00 -4°C° 0 mm 3 m/s 586 mmHg 73%
    01:00 -5°C° 0 mm 3 m/s 586 mmHg 74%
    02:00 -5°C° 0 mm 3 m/s 587 mmHg 75%
    03:00 -5°C° 0 mm 3 m/s 587 mmHg 76%
    04:00 -5°C° 0 mm 3 m/s 587 mmHg 76%
    05:00 -5°C° 0 mm 3 m/s 587 mmHg 76%
    06:00 -6°C° 0 mm 3 m/s 587 mmHg 75%
    07:00 -5°C° 0 mm 3 m/s 587 mmHg 72%
    08:00 -4°C° 0 mm 3 m/s 588 mmHg 69%
    09:00 -2°C° 0 mm 3 m/s 588 mmHg 66%
    10:00 -2°C° 0.1 mm 3 m/s 588 mmHg 66%
    11:00 -1°C° 0.1 mm 3 m/s 588 mmHg 66%
    12:00 0°C° 0.1 mm 3 m/s 588 mmHg 66%
    13:00 -1°C° 0.7 mm 3 m/s 587 mmHg 69%
    14:00 -1°C° 0.7 mm 3 m/s 587 mmHg 71%
    15:00 -1°C° 0.7 mm 3 m/s 586 mmHg 73%
    16:00 -1°C° 0.6 mm 3 m/s 586 mmHg 74%
    17:00 -2°C° 0.6 mm 3 m/s 586 mmHg 75%
    18:00 -2°C° 0.6 mm 3 m/s 586 mmHg 76%
    19:00 -2°C° 0.4 mm 3 m/s 586 mmHg 76%
    20:00 -2°C° 0.4 mm 3 m/s 586 mmHg 76%
    21:00 -2°C° 0.4 mm 3 m/s 586 mmHg 77%
    22:00 -2°C° 0.3 mm 3 m/s 586 mmHg 77%
    23:00 -2°C° 0.3 mm 3 m/s 586 mmHg 77%

    Demain, 13 Décembre, Jeudi

    Heure Température Précipitation Vent Pression Humidité
    00:00 -2°C° 0.3 mm 3 m/s 586 mmHg 77%
    01:00 -4°C° 0 mm 3 m/s 586 mmHg 78%
    02:00 -4°C° 0 mm 3 m/s 586 mmHg 78%
    03:00 -4°C° 0 mm 3 m/s 586 mmHg 78%
    04:00 -5°C° 0 mm 3 m/s 586 mmHg 78%
    05:00 -6°C° 0 mm 3 m/s 586 mmHg 78%
    06:00 -6°C° 0 mm 3 m/s 585 mmHg 78%
    07:00 -6°C° 0 mm 3 m/s 586 mmHg 76%
    08:00 -6°C° 0 mm 3 m/s 586 mmHg 74%
    09:00 -5°C° 0 mm 3 m/s 587 mmHg 73%
    10:00 -5°C° 0.1 mm 3 m/s 587 mmHg 73%
    11:00 -4°C° 0.1 mm 3 m/s 588 mmHg 73%
    12:00 -4°C° 0.1 mm 3 m/s 588 mmHg 74%
    13:00 -4°C° 0.2 mm 3 m/s 588 mmHg 75%
    14:00 -4°C° 0.2 mm 3 m/s 589 mmHg 76%
    15:00 -4°C° 0.2 mm 3 m/s 589 mmHg 78%
    16:00 -4°C° 0.1 mm 2 m/s 589 mmHg 80%
    17:00 -5°C° 0.1 mm 2 m/s 589 mmHg 82%
    18:00 -6°C° 0.1 mm 2 m/s 589 mmHg 83%
    19:00 -7°C° 0 mm 2 m/s 589 mmHg 81%
    20:00 -8°C° 0 mm 2 m/s 589 mmHg 79%
    21:00 -8°C° 0 mm 2 m/s 589 mmHg 76%
    22:00 -9°C° 0 mm 2 m/s 589 mmHg 73%
    23:00 -9°C° 0 mm 2 m/s 589 mmHg 69%

    Après-demain, 14 Décembre, Vendredi

    Heure Température Précipitation Vent Pression Humidité
    00:00 -10°C° 0 mm 2 m/s 589 mmHg 66%
    01:00 -10°C° 0 mm 2 m/s 590 mmHg 65%
    02:00 -10°C° 0 mm 2 m/s 590 mmHg 64%
    03:00 -10°C° 0 mm 2 m/s 590 mmHg 63%
    04:00 -10°C° 0 mm 2 m/s 590 mmHg 64%
    05:00 -12°C° 0 mm 2 m/s 590 mmHg 64%
    06:00 -12°C° 0 mm 2 m/s 590 mmHg 65%
    07:00 -10°C° 0 mm 2 m/s 591 mmHg 64%
    08:00 -9°C° 0 mm 2 m/s 592 mmHg 63%
    09:00 -8°C° 0 mm 2 m/s 592 mmHg 62%
    10:00 -7°C° 0 mm 2 m/s 592 mmHg 61%
    11:00 -6°C° 0 mm 2 m/s 593 mmHg 59%
    12:00 -5°C° 0 mm 2 m/s 593 mmHg 58%
    13:00 -6°C° 0 mm 2 m/s 593 mmHg 58%
    14:00 -6°C° 0 mm 2 m/s 593 mmHg 59%
    15:00 -6°C° 0 mm 2 m/s 593 mmHg 60%
    16:00 -7°C° 0 mm 2 m/s 592 mmHg 61%
    17:00 -8°C° 0 mm 2 m/s 592 mmHg 63%
    18:00 -9°C° 0 mm 2 m/s 592 mmHg 65%
    19:00 -9°C° 0 mm 2 m/s 592 mmHg 66%
    20:00 -9°C° 0 mm 2 m/s 592 mmHg 66%
    21:00 -10°C° 0 mm 2 m/s 592 mmHg 67%
    22:00 -10°C° 0 mm 2 m/s 592 mmHg 68%
    23:00 -10°C° 0 mm 2 m/s 592 mmHg 68%

    15 Décembre, Samedi

    Heure Température Précipitation Vent Pression Humidité
    00:00 -10°C° 0 mm 2 m/s 592 mmHg 69%
    01:00 -12°C° 0 mm 2 m/s 592 mmHg 69%
    02:00 -12°C° 0 mm 2 m/s 591 mmHg 69%
    03:00 -13°C° 0 mm 2 m/s 591 mmHg 69%
    04:00 -13°C° 0 mm 2 m/s 591 mmHg 67%
    05:00 -13°C° 0 mm 2 m/s 591 mmHg 65%
    06:00 -13°C° 0 mm 2 m/s 591 mmHg 63%
    07:00 -12°C° 0 mm 2 m/s 592 mmHg 60%
    08:00 -10°C° 0 mm 2 m/s 593 mmHg 57%
    09:00 -8°C° 0 mm 1 m/s 594 mmHg 55%
    10:00 -7°C° 0 mm 1 m/s 594 mmHg 51%
    11:00 -6°C° 0 mm 1 m/s 594 mmHg 48%
    12:00 -4°C° 0 mm 1 m/s 595 mmHg 45%
    13:00 -4°C° 0 mm 1 m/s 594 mmHg 47%
    14:00 -4°C° 0 mm 1 m/s 594 mmHg 48%
    15:00 -4°C° 0 mm 1 m/s 594 mmHg 50%
    16:00 -7°C° 0 mm 1 m/s 594 mmHg 49%
    17:00 -8°C° 0 mm 1 m/s 594 mmHg 48%
    18:00 -10°C° 0 mm 2 m/s 593 mmHg 47%
    19:00 -10°C° 0 mm 2 m/s 593 mmHg 45%
    20:00 -10°C° 0 mm 2 m/s 593 mmHg 43%
    21:00 -10°C° 0 mm 2 m/s 593 mmHg 42%
    22:00 -10°C° 0 mm 2 m/s 593 mmHg 42%
    23:00 -10°C° 0 mm 2 m/s 593 mmHg 43%

    16 Décembre, Dimanche

    Heure Température Précipitation Vent Pression Humidité
    00:00 -10°C° 0 mm 2 m/s 593 mmHg 44%
    01:00 -10°C° 0 mm 2 m/s 594 mmHg 45%
    02:00 -10°C° 0 mm 2 m/s 594 mmHg 46%
    03:00 -9°C° 0 mm 2 m/s 594 mmHg 47%
    04:00 -9°C° 0 mm 2 m/s 594 mmHg 47%
    05:00 -9°C° 0 mm 2 m/s 594 mmHg 47%
    06:00 -9°C° 0 mm 2 m/s 594 mmHg 48%
    07:00 -8°C° 0 mm 2 m/s 594 mmHg 48%
    08:00 -7°C° 0 mm 2 m/s 595 mmHg 48%
    09:00 -6°C° 0 mm 2 m/s 595 mmHg 48%
    10:00 -5°C° 0 mm 2 m/s 596 mmHg 48%
    11:00 -3°C° 0 mm 2 m/s 596 mmHg 48%
    12:00 -2°C° 0 mm 2 m/s 596 mmHg 48%
    13:00 -3°C° 0 mm 2 m/s 596 mmHg 50%
    14:00 -3°C° 0 mm 2 m/s 595 mmHg 52%
    15:00 -1°C° 0 mm 1 m/s 595 mmHg 55%
    16:00 -5°C° 0 mm 2 m/s 594 mmHg 53%
    17:00 -6°C° 0 mm 2 m/s 594 mmHg 51%
    18:00 -7°C° 0 mm 2 m/s 594 mmHg 49%
    19:00 -7°C° 0 mm 2 m/s 593 mmHg 49%
    20:00 -7°C° 0 mm 2 m/s 593 mmHg 49%
    21:00 -7°C° 0 mm 2 m/s 593 mmHg 50%
    22:00 -7°C° 0 mm 2 m/s 593 mmHg 51%
    23:00 -7°C° 0 mm 2 m/s 593 mmHg 53%

    17 Décembre, Lundi

    Heure Température Précipitation Vent Pression Humidité
    00:00 -7°C° 0 mm 2 m/s 593 mmHg 55%
    01:00 -7°C° 0 mm 2 m/s 593 mmHg 56%
    02:00 -7°C° 0 mm 2 m/s 593 mmHg 57%
    03:00 -7°C° 0 mm 2 m/s 593 mmHg 58%
    04:00 -7°C° 0 mm 2 m/s 592 mmHg 59%
    05:00 -7°C° 0 mm 2 m/s 592 mmHg 59%
    06:00 -7°C° 0 mm 2 m/s 592 mmHg 60%
    07:00 -4°C° 0 mm 1 m/s 593 mmHg 61%
    08:00 -3°C° 0 mm 1 m/s 593 mmHg 61%
    09:00 -3°C° 0 mm 1 m/s 594 mmHg 61%
    10:00 -2°C° 0 mm 1 m/s 594 mmHg 59%
    11:00 -1°C° 0 mm 1 m/s 594 mmHg 58%
    12:00 0°C° 0 mm 1 m/s 594 mmHg 56%
    13:00 0°C° 0 mm 1 m/s 594 mmHg 59%
    14:00 0°C° 0 mm 1 m/s 593 mmHg 61%
    15:00 -1°C° 0 mm 1 m/s 593 mmHg 64%
    16:00 -2°C° 0 mm 1 m/s 593 mmHg 64%
    17:00 -3°C° 0 mm 1 m/s 592 mmHg 64%
    18:00 -6°C° 0 mm 1 m/s 592 mmHg 65%
    19:00 -4°C° 0 mm 1 m/s 592 mmHg 63%
    20:00 -4°C° 0 mm 1 m/s 592 mmHg 61%
    21:00 -4°C° 0 mm 1 m/s 592 mmHg 59%
    22:00 -7°C° 0 mm 2 m/s 592 mmHg 58%
    23:00 -7°C° 0 mm 2 m/s 592 mmHg 58%
    Voir plus